Location: Asheville, NC
(35.6000°N, 82.5500°W)
Time: 20:05:49
(UTC-04:00)

XW-2A - Pass Details

Date: 11 March 2018
Orbit: 435 x 454 km, 97.4° (Epoch: 24 June)

Event Time Altitude Azimuth Distance (km) Brightness Sun altitude
Rises 19:47:16 0° 125° (SE) 2,398 ? -3.4°
Reaches altitude 10° 19:50:15 10° 94° (E) 1,536 ? -4.1°
Maximum altitude 19:51:38 12° 69° (ENE) 1,408 ? -4.3°
Drops below altitude 10° 19:53:02 10° 44° (NE) 1,542 ? -4.6°
Sets 19:56:01 0° 13° (NNE) 2,410 ? -5.2°
